Regional Weather Roundup
Issued by NWS Sterling, VA

Home | Current Version | Previous Version | Graphics & Text | Print | Product List | Glossary On
Versions: 1 2 3 4 5 6 7 8 9 10 11 12 13 14 15 16 17 18 19 20 21 22 23 24 25 26 27 28 29 30 31 32 33 34 35 36 37 38 39 40 41 42 43 44 45 46 47 48 49 50
000
ASUS41 KLWX 221110
RWRLWX

REGIONAL WEATHER ROUNDUP
NATIONAL WEATHER SERVICE BALTIMORE MD/WASHINGTON DC
700 AM EDT FRI AUG 22 2014

Note: "FAIR" indicates few or no clouds below 12,000 feet
with no significant weather and/or obstructions to visibility.
 TC=TEMPERATURE CELSIUS

 * =Non NWS site. Station does not report precipitation (e.g. rain,
    snow, etc.), thunder, or fog.

DCZ001-MDZ009-015-VAZ040>042-051-053>054-221200-
WASHINGTON METRO
  /KDAA//-FT BELVOIR

CITY           SKY/WX    TMP DP  RH WIND       PRES   REMARKS
WASHINGTON NAT CLOUDY    75  64  69 N5        29.99R
DULLES         MOCLDY    68  66  93 CALM      30.00R
ANDREWS AFB    PTCLDY    69  66  90 N7        29.98R
QUANTICO       PTCLDY    72  67  84 NW3       29.99R
COLLEGE PARK*  PTCLDY    70  70 100 CALM      29.97R
LEESBURG*      MOCLDY    68  68 100 W5        30.01R
GAITHERSBURG*  CLEAR     66  63  88 CALM      30.03S

$$

MDZ006>007-011-014-221200-
BALTIMORE METRO

CITY           SKY/WX    TMP DP  RH WIND       PRES   REMARKS
BWI AIRPORT    MOCLDY    70  67  90 CALM      29.98R
MD SCIENCE CTR   N/A     72  67  84 MISG      29.98R
MARTIN STATE   CLOUDY    72  72 100 NW3       29.99R FOG
ANNAPOLIS      MOCLDY    73  68  84 NW8       29.96R
FORT MEADE*    CLOUDY    64  63  94 CALM      30.00R

$$

MDZ012-015-019>023-221200-
MARYLAND EASTERN SHORE

CITY           SKY/WX    TMP DP  RH WIND       PRES   REMARKS
OCEAN CITY     FOG      N/A N/A N/A CALM      29.96R VSB 1/4
SALISBURY      PTCLDY    72  69  90 CALM      29.95F FOG
BAY BRIDGE AP*   N/A     73  72  94 NE3       29.97R
CAMBRIDGE*     CLEAR     72  68  88 CALM      29.95R
EASTON*        PTCLDY    73  73 100 CALM      29.99R FOG

$$

MDZ017>025-221200-
SOUTHERN MARYLAND

CITY           SKY/WX    TMP DP  RH WIND       PRES   REMARKS
PATUXENT RIVER MOCLDY    73  67  81 NW9       29.96R
ST INIGOES     PTCLDY    73  66  78 CALM      29.95R
LEONARDTOWN*   PTCLDY    72  64  78 CALM      29.98R

$$

MDZ003>005-221200-
NORTH CENTRAL MARYLAND

CITY           SKY/WX    TMP DP  RH WIND       PRES   REMARKS
FREDERICK*     PTCLDY   N/A N/A N/A CALM      30.02R
HAGERSTOWN APT CLEAR     66  64  93 CALM      30.01R FOG
WESTMINSTER*   MOCLDY    66  64  94 CALM      30.01S FOG

$$

MDZ501>502-221200-
WESTERN MARYLAND

CITY           SKY/WX    TMP DP  RH WIND       PRES   REMARKS
OAKLAND*       CLOUDY    63 N/A N/A SW3       30.09S FOG
CUMBERLAND*    MOCLDY    68  64  88 CALM      30.06R

$$

VAZ025>031-221200-
SHENANDOAH VALLEY

CITY           SKY/WX    TMP DP  RH WIND       PRES   REMARKS
WINCHESTER*    MOCLDY    68  66  94 CALM      30.03R
STAUNTON*      CLOUDY    66  64  92 CALM      30.05S

$$

WVZ021-048>050-054>055-221200-
EASTERN WEST VIRGINIA PANHANDLE

CITY           SKY/WX    TMP DP  RH WIND       PRES   REMARKS
MARTINSBURG    MOCLDY    68  64  87 W6        30.03R
PETERSBURG*    NOT AVBL

$$

VAZ036>039-050-221200-
CENTRAL FOOTHILLS

CITY           SKY/WX    TMP DP  RH WIND       PRES   REMARKS
CHARLOTTESVILL MOCLDY    70  67  90 CALM      30.00R
ORANGE*        MOCLDY    68  66  94 CALM      30.01S

$$

VAZ055>057-221200-
NORTH AND CENTRAL PIEDMONT

CITY           SKY/WX    TMP DP  RH WIND       PRES   REMARKS
FREDERICKSBRG* MOCLDY    72  72 100 CALM      29.98R FOG
STAFFORD*      MOCLDY    68  68 100 CALM      30.03R FOG

$$

NCZ024-NYZ072-PAZ021-071-VAZ022-071-221200-
OTHER REGIONAL OBSERVATIONS

CITY           SKY/WX    TMP DP  RH WIND       PRES   REMARKS
NEW YORK CITY  MOCLDY    67  64  90 VRB5      30.04R
PHILADELPHIA   MOCLDY    68  65  90 E9        30.00R
PITTSBURGH     CLOUDY    68  67  96 CALM      30.01R FOG
ROANOKE        MOCLDY    71  65  81 W5        30.06R
RICHMOND       MOCLDY    75  69  81 NW3       29.99R
RALEIGH        MOCLDY    72  69  90 CALM      30.02R

$$

ANZ530>537-221200-
MARINE OBSERVATIONS

STATION/POSITION TIME  TEMP    WIND        PRES
                       AIR SEA DIR/SP/G
                 (UTC) (F)     (DEG/KT/KT) (MB)
THOMAS PT LIGHT  1100   73 78  350/ 10/ 12 1015.1R
BALT KEY BRIDGE  1100   72     340/  6/  7 1014.5R
COVE POINT       1100   76     350/ 12/ 15 1014.2R
LEWISETTA        1100   77 81  350/  5/  8 1014.0F
SOLOMONS ISLAND  1100      80                N/A
PINEY POINT      1100           10/  8/  9   N/A

$$



USA.gov is the U.S. government's official web portal to all federal, state and local government web resources and services.